Fountain, MN

1:03 AM CST on February 07, 2016 (GMT -0600)
Preston

Weather History for KFKA - September, 2013

Change the Weather History Date:

Tuesday, September 10, 2013

  Actual Average (KRST) Record (KRST)
Temperature  
Mean Temperature 76 °F 63 °F  
Max Temperature 86 °F 74 °F 98 °F (1931)
Min Temperature 66 °F 53 °F 29 °F (1917)
Degree Days  
Heating Degree Days 0 4  
Month to date heating degree days 29  
Since 1 July heating degree days 67  
Cooling Degree Days 10 2  
Month to date cooling degree days 28  
Year to date cooling degree days 553  
Growing Degree Days 26 (Base 50)    
Moisture  
Dew Point 64 °F    
Average Humidity 70    
Maximum Humidity 91    
Minimum Humidity 54    
Precipitation  
Precipitation 0.00 in 0.12 in 3.11 in (1938)
Month to date precipitation 1.22  
Year to date precipitation 25.41  
Snow  
Snow 0.00 in 0.00 in 0.00 in (2012)
Month to date snowfall 0.0  
Since 1 July snowfall 0.0  
Snow Depth -    
Sea Level Pressure  
Sea Level Pressure 29.94 in    
Wind  
Wind Speed 7 mph (West)    
Max Wind Speed 13 mph    
Max Gust Speed 16 mph    
Visibility 10 miles    
Events Rain    
T = Trace of Precipitation, MM = Missing Value Source: NWS Daily Summary

Daily Weather History Graph

Daily Weather History Graph

Search for Another Location

Airport or City:

Trip Planner

Search our weather history database for the weather conditions in past years. The results will help you decide how hot, cold, wet, or windy it might be!

Date:

Astronomy

Sep. 10, 2013 Rise Set
Actual Time 6:42 AM CDT 7:27 PM CDT
Civil Twilight 6:13 AM CDT 7:56 PM CDT
Nautical Twilight 5:39 AM CDT 8:30 PM CDT
Astronomical Twilight 5:03 AM CDT 9:06 PM CDT
Moon 12:20 PM CDT (9/10) 10:19 PM CDT (9/10)
Length of Visible Light 13h 42m
Length of Day
12h 44m
Waxing Crescent, 28% of the Moon is Illuminated
Sep 10
Waxing Crescent
Sep 12
First Quarter
Sep 19
Full
Sep 26
Last Quarter
Oct 4
New

Hourly Weather History & Observations

Time (CDT) Temp. Heat Index Dew Point Humidity Pressure Visibility Wind Dir Wind Speed Gust Speed Precip Events Conditions
12:14 AM 78.8 °F - 62.1 °F 56% 29.82 in 10.0 mi SW 9.2 mph 16.1 mph N/A   Clear
12:35 AM 77.9 °F - 62.6 °F 59% 29.83 in 10.0 mi SW 11.5 mph - N/A   Clear
12:55 AM 77.5 °F - 62.6 °F 60% 29.83 in 10.0 mi SW 10.4 mph - N/A   Clear
1:15 AM 77.4 °F - 62.6 °F 60% 29.84 in 10.0 mi SW 11.5 mph 16.1 mph N/A   Clear
1:35 AM 77.5 °F - 62.6 °F 60% 29.85 in 10.0 mi SW 10.4 mph - N/A   Clear
1:55 AM 77.0 °F - 62.8 °F 61% 29.85 in 10.0 mi WSW 10.4 mph - N/A   Clear
2:16 AM 75.4 °F - 63.0 °F 65% 29.86 in 10.0 mi WSW 9.2 mph - N/A   Clear
2:35 AM 74.3 °F - 63.1 °F 68% 29.87 in 10.0 mi WSW 8.1 mph - N/A   Clear
2:55 AM 73.0 °F - 63.5 °F 72% 29.87 in 10.0 mi SW 8.1 mph - N/A   Clear
3:15 AM 72.9 °F - 63.5 °F 72% 29.87 in 10.0 mi SW 9.2 mph - N/A   Clear
3:35 AM 72.5 °F - 63.5 °F 73% 29.88 in 10.0 mi WSW 9.2 mph - N/A   Clear
3:53 AM 71.8 °F - 63.7 °F 76% 29.88 in 10.0 mi SW 8.1 mph - N/A   Clear
4:15 AM 70.9 °F - 63.7 °F 78% 29.88 in 10.0 mi SW 6.9 mph - N/A   Clear
4:35 AM 69.1 °F - 63.7 °F 83% 29.89 in 10.0 mi WSW 5.8 mph - N/A   Clear
4:55 AM 68.2 °F - 63.5 °F 85% 29.89 in 10.0 mi West 5.8 mph - N/A   Clear
5:15 AM 69.8 °F - 64.0 °F 82% 29.89 in 10.0 mi WSW 6.9 mph - N/A   Clear
5:35 AM 69.4 °F - 64.0 °F 83% 29.89 in 10.0 mi WSW 6.9 mph - N/A   Clear
5:55 AM 68.9 °F - 63.9 °F 84% 29.90 in 10.0 mi WSW 6.9 mph - N/A   Clear
6:15 AM 67.6 °F - 63.9 °F 88% 29.91 in 10.0 mi West 6.9 mph - N/A   Clear
6:35 AM 67.1 °F - 63.9 °F 89% 29.91 in 10.0 mi WSW 4.6 mph - N/A   Clear
6:55 AM 66.6 °F - 63.9 °F 91% 29.92 in 10.0 mi SSW 4.6 mph - N/A   Clear
7:15 AM 67.5 °F - 64.4 °F 90% 29.93 in 10.0 mi WSW 3.5 mph - N/A   Clear
7:36 AM 68.0 °F - 64.9 °F 90% 29.93 in 10.0 mi Calm Calm - N/A   Clear
7:55 AM 68.9 °F - 64.9 °F 87% 29.93 in 10.0 mi SW 4.6 mph - N/A   Clear
8:16 AM 69.8 °F - 65.1 °F 85% 29.93 in 10.0 mi SSW 3.5 mph - N/A   Clear
8:35 AM 72.1 °F - 65.7 °F 80% 29.95 in 10.0 mi WNW 6.9 mph - N/A   Clear
8:56 AM 73.8 °F - 65.3 °F 75% 29.95 in 10.0 mi NW 9.2 mph - N/A   Clear
9:15 AM 74.5 °F - 65.1 °F 72% 29.95 in 10.0 mi NW 5.8 mph - N/A   Clear
9:36 AM 76.1 °F - 64.8 °F 68% 29.95 in 10.0 mi NW 3.5 mph - N/A   Clear
9:55 AM 77.2 °F - 64.6 °F 65% 29.95 in 10.0 mi Calm Calm - N/A   Clear
10:15 AM 78.3 °F - 65.5 °F 65% 29.94 in 10.0 mi SSW 3.5 mph - N/A   Clear
10:35 AM 78.6 °F - 65.3 °F 64% 29.94 in 10.0 mi Calm Calm - N/A   Clear
10:55 AM 79.3 °F - 65.5 °F 62% 29.95 in 10.0 mi West 4.6 mph - N/A   Clear
11:15 AM 80.4 °F 82.3 °F 65.5 °F 60% 29.95 in 10.0 mi Calm Calm - N/A   Scattered Clouds
11:35 AM 81.0 °F 83.0 °F 66.0 °F 60% 29.95 in 10.0 mi West 6.9 mph - N/A   Clear
11:55 AM 82.4 °F 84.6 °F 66.2 °F 58% 29.95 in 10.0 mi WNW 4.6 mph - N/A   Clear
12:15 PM 82.8 °F 85.1 °F 66.4 °F 58% 29.95 in 10.0 mi WSW 4.6 mph - N/A   Clear
12:35 PM 83.1 °F 85.4 °F 66.6 °F 57% 29.95 in 10.0 mi SW 5.8 mph - N/A   Clear
12:55 PM 83.7 °F 86.2 °F 66.9 °F 57% 29.96 in 10.0 mi WNW 3.5 mph - N/A   Scattered Clouds
1:16 PM 84.6 °F 87.4 °F 67.3 °F 56% 29.95 in 10.0 mi SW 6.9 mph - N/A   Mostly Cloudy
1:35 PM 82.9 °F 85.4 °F 66.9 °F 58% 29.95 in 10.0 mi SW 4.6 mph - N/A   Mostly Cloudy
1:55 PM 84.2 °F 86.8 °F 66.9 °F 56% 29.96 in 10.0 mi West 5.8 mph - N/A   Mostly Cloudy
2:16 PM 85.1 °F 88.2 °F 67.6 °F 56% 29.96 in 10.0 mi West 8.1 mph - N/A   Mostly Cloudy
2:35 PM 85.8 °F 88.8 °F 67.5 °F 54% 29.95 in 10.0 mi West 8.1 mph - N/A   Scattered Clouds
2:55 PM 85.3 °F 88.2 °F 67.6 °F 55% 29.95 in 10.0 mi West 4.6 mph - N/A   Scattered Clouds
3:15 PM 84.2 °F 87.3 °F 67.8 °F 58% 29.95 in 10.0 mi SW 5.8 mph - N/A   Mostly Cloudy
3:35 PM 83.7 °F 86.5 °F 67.5 °F 58% 29.95 in 10.0 mi WSW 4.6 mph - N/A   Mostly Cloudy
3:55 PM 83.8 °F 86.7 °F 67.6 °F 58% 29.95 in 10.0 mi West 6.9 mph - N/A   Overcast
4:15 PM 84.9 °F 87.9 °F 67.8 °F 56% 29.95 in 10.0 mi WNW 8.1 mph - N/A   Mostly Cloudy
4:35 PM 83.3 °F 85.7 °F 66.4 °F 57% 29.96 in 10.0 mi NW 12.7 mph - N/A   Mostly Cloudy
4:55 PM 80.1 °F 81.6 °F 63.5 °F 57% 29.96 in 10.0 mi NNW 11.5 mph - N/A   Scattered Clouds
5:15 PM 79.0 °F - 63.5 °F 59% 29.96 in 10.0 mi NNW 6.9 mph - N/A   Scattered Clouds
5:35 PM 78.8 °F - 63.7 °F 60% 29.96 in 10.0 mi NNW 6.9 mph - N/A   Mostly Cloudy
5:56 PM 77.4 °F - 63.9 °F 63% 29.96 in 10.0 mi NNW 5.8 mph - N/A   Scattered Clouds
6:15 PM 76.1 °F - 64.0 °F 66% 29.96 in 10.0 mi North 6.9 mph - N/A Rain Light Rain
6:35 PM 75.4 °F - 62.6 °F 64% 29.97 in 10.0 mi NNW 8.1 mph - N/A   Scattered Clouds
6:55 PM 74.5 °F - 61.7 °F 64% 29.97 in 10.0 mi NNW 6.9 mph - N/A   Mostly Cloudy
7:15 PM 74.1 °F - 62.8 °F 68% 29.97 in 10.0 mi NNW 5.8 mph - N/A   Mostly Cloudy
7:35 PM 72.9 °F - 63.7 °F 73% 29.97 in 10.0 mi NW 4.6 mph - N/A   Scattered Clouds
7:55 PM 72.7 °F - 63.9 °F 74% 29.98 in 10.0 mi NW 4.6 mph - N/A   Clear
8:15 PM 72.3 °F - 63.9 °F 75% 29.99 in 10.0 mi NW 5.8 mph - N/A   Scattered Clouds
8:35 PM 71.8 °F - 63.9 °F 76% 30.00 in 10.0 mi WNW 4.6 mph - N/A   Clear
8:55 PM 71.6 °F - 63.9 °F 76% 30.01 in 10.0 mi WNW 4.6 mph - N/A   Clear
9:16 PM 71.6 °F - 63.5 °F 76% 30.01 in 10.0 mi WNW 5.8 mph - N/A   Clear
9:35 PM 70.7 °F - 63.5 °F 78% 30.01 in 10.0 mi WNW 5.8 mph - N/A   Clear
9:55 PM 70.3 °F - 63.1 °F 78% 30.02 in 10.0 mi West 4.6 mph - N/A   Clear
10:16 PM 69.8 °F - 63.3 °F 80% 30.01 in 10.0 mi WNW 4.6 mph - N/A   Clear
10:35 PM 69.4 °F - 63.5 °F 81% 30.01 in 10.0 mi Calm Calm - N/A   Clear
10:55 PM 69.8 °F - 62.8 °F 78% 30.02 in 10.0 mi West 3.5 mph - N/A   Clear
11:15 PM 69.4 °F - 63.0 °F 80% 30.01 in 10.0 mi WSW 3.5 mph - N/A   Clear
11:35 PM 68.4 °F - 62.8 °F 82% 30.01 in 10.0 mi West 5.8 mph - N/A   Clear
11:55 PM 68.7 °F - 62.8 °F 81% 30.02 in 10.0 mi West 5.8 mph - N/A   Clear